Regional Weather Roundup
Issued by NWS

Home | Current Version | Previous Version | Graphics & Text | Print | Product List | Glossary Off
Versions: 1 2 3 4 5 6 7 8 9 10 11 12 13 14 15 16 17 18 19 20 21 22 23 24 25 26 27 28 29 30 31 32 33 34 35 36 37 38 39 40 41 42 43 44 45 46 47 48 49 50

000
ASUS43 KIND 240509
RWRIN

WEATHER ROUNDUP FOR INDIANA
NATIONAL WEATHER SERVICE INDIANAPOLIS IN
100 AM EDT WED SEP 24 2014

NOTE: "FAIR" INDICATES FEW OR NO CLOUDS BELOW 12,000 FEET WITH NO
SIGNIFICANT WEATHER AND/OR OBSTRUCTIONS TO VISIBILITY.

* - STATION DOES NOT REPORT WEATHER SUCH AS PRECIPITATION OR FOG.

+ - STATION NOT QUALITY CONTROLLED BY THE NATIONAL WEATHER SERVICE.
    USE DATA WITH CAUTION...ESPECIALLY DEWPOINT AND RELATIVE
    HUMIDITY OBSERVATIONS.

INZ001>003-010>013-019-020-240600-
NORTHWEST INDIANA

CITY           SKY/WX    TMP DP  RH WIND       PRES   REMARKS
GARY /AIRPORT/ CLEAR     51  49  92 CALM      30.32S
KNOX *+        CLEAR     48  46  92 CALM      30.33R
LA PORTE +     CLEAR     48  48  98 CALM      30.34S
MICHIGAN CITY+ CLEAR     48  48 100 CALM      30.33S
MONTICELLO +   CLEAR     53  50  87 CALM      30.31F
RENSSELAER +   PTCLDY    50  50 100 CALM      30.32S
VALPARAISO     CLEAR     51  48  89 NE5       30.33S

$$

LMZ046-743>745-240600-
SOUTHERN LAKE MICHIGAN

STATION/POSITION TIME  TEMP WIND        PRES
                       AIR  DIR/SP/G
                 (UTC) (F)  (DEG/KT/KT) (MB)

$$

INZ004-005-014>016-021>024-240600-
NORTH CENTRAL INDIANA

CITY           SKY/WX    TMP DP  RH WIND       PRES   REMARKS
GOSHEN         CLEAR     51  49  92 CALM      30.34S FOG
LOGANSPORT +   CLEAR     46  43  87 E5        30.33S
PERU/GRISSOM   CLEAR     54  52  93 E6        30.32F
ROCHESTER +    CLEAR     52  50  93 CALM      30.34R
SOUTH BEND     CLEAR     52  48  86 CALM      30.34S
WARSAW +       CLEAR     48  48 100 CALM      30.34S

$$

INZ006>009-017-018-025>027-240600-
NORTHEAST INDIANA

CITY           SKY/WX    TMP DP  RH WIND       PRES   REMARKS
ANGOLA *+      CLEAR     50  50 100 CALM      30.36R
AUBURN +       CLEAR     52  46  82 E5        30.36S
FORT WAYNE     CLEAR     50  48  93 CALM      30.35S
HUNTINGTON +   CLEAR     48  48  99 CALM      30.34S

$$

INZ028-029-035-036-043>045-051>053-240600-
WEST CENTRAL INDIANA

CITY           SKY/WX    TMP DP  RH WIND       PRES   REMARKS
GREENCASTLE +  CLEAR     52  46  82 CALM      30.31S
LAFAYETTE      CLEAR     53  49  86 CALM      30.31S
TERRE HAUTE    CLEAR     50  47  89 CALM      30.30S

$$

INZ030>032-037>040-046>048-054>057-064-065-240600-
CENTRAL INDIANA

CITY           SKY/WX    TMP DP  RH WIND       PRES   REMARKS
CP ATTERBURY + CLEAR     46  45  93 CALM      30.31S
FRANKFORT +    CLEAR     51  48  89 E5        30.33S
INDIANAPOLIS   CLEAR     57  47  69 NE5       30.30S
-EAGLE CREEK   CLEAR     54  47  77 CALM      30.31S
KOKOMO *+      CLEAR     48  45  87 E6        30.33S
MARION +       CLEAR     50  46  86 E5        30.34S
MT COMFORT *+  CLEAR     46  46 100 CALM      30.32S
SHELBYVILLE    CLEAR     51  47  86 NE5       30.31S
ZIONSVILLE +   CLEAR     49  46  88 CALM      30.33S

$$

INZ033-034-041-042-049-050-058-059-240600-
EAST CENTRAL INDIANA

CITY           SKY/WX    TMP DP  RH WIND       PRES   REMARKS
MUNCIE         CLEAR     50  45  83 CALM      30.33S

$$

INZ060-061-067>069-081>083-085>088-240600-
SOUTHWEST INDIANA

CITY           SKY/WX    TMP DP  RH WIND       PRES   REMARKS
EVANSVILLE     CLEAR     56  49  77 NE3       30.27S
WASHINGTON +   CLEAR     47  46  99 CALM      30.28S FOG

$$

INZ062-063-066-070>080-084-089>092-240600-
SOUTH CENTRAL AND SOUTHEAST INDIANA

CITY           SKY/WX    TMP DP  RH WIND       PRES   REMARKS
BLOOMINGTON    CLEAR     48  46  93 CALM      30.30S FOG
NORTH VERNON + CLEAR     50  50 100 E3        30.31

$$




USA.gov is the U.S. government's official web portal to all federal, state and local government web resources and services.